• en France
  • Liste des pays
  • À 7 jours
  • Température de l'eau
  • Carte satellitaire
  • Carte météo
  • Widgets météo
  • user-avatar
    Se connecter

    Météo par heure à Escaldes-Engordany

    Ce jour, 13 Novembre, Mardi

    Heure Température Précipitation Vent Pression Humidité
    00:00 +7°C° 0 mm 1 m/s 641 mmHg 71%
    01:00 +7°C° 0 mm 1 m/s 642 mmHg 70%
    02:00 +6°C° 0 mm 1 m/s 642 mmHg 69%
    03:00 +6°C° 0 mm 1 m/s 642 mmHg 68%
    04:00 +6°C° 0 mm 1 m/s 642 mmHg 69%
    05:00 +6°C° 0 mm 1 m/s 642 mmHg 69%
    06:00 +6°C° 0 mm 1 m/s 642 mmHg 69%
    07:00 +7°C° 0 mm 1 m/s 643 mmHg 67%
    08:00 +8°C° 0 mm 1 m/s 644 mmHg 66%
    09:00 +10°C° 0 mm 1 m/s 645 mmHg 65%
    10:00 +11°C° 0 mm 1 m/s 645 mmHg 61%
    11:00 +12°C° 0 mm 1 m/s 646 mmHg 58%
    12:00 +14°C° 0 mm 2 m/s 646 mmHg 55%
    13:00 +13°C° 0 mm 2 m/s 646 mmHg 58%
    14:00 +13°C° 0 mm 2 m/s 646 mmHg 62%
    15:00 +13°C° 0 mm 2 m/s 646 mmHg 66%
    16:00 +11°C° 0 mm 1 m/s 645 mmHg 72%
    17:00 +9°C° 0 mm 1 m/s 645 mmHg 79%
    18:00 +6°C° 0 mm 0 m/s 644 mmHg 86%
    19:00 +7°C° 0 mm 1 m/s 644 mmHg 85%
    20:00 +7°C° 0 mm 1 m/s 644 mmHg 84%
    21:00 +7°C° 0 mm 1 m/s 644 mmHg 82%
    22:00 +6°C° 0 mm 1 m/s 644 mmHg 80%
    23:00 +6°C° 0 mm 1 m/s 644 mmHg 79%

    Demain, 14 Novembre, Mercredi

    Heure Température Précipitation Vent Pression Humidité
    00:00 +6°C° 0 mm 1 m/s 644 mmHg 77%
    01:00 +6°C° 0 mm 1 m/s 643 mmHg 76%
    02:00 +6°C° 0 mm 1 m/s 643 mmHg 75%
    03:00 +6°C° 0 mm 1 m/s 643 mmHg 74%
    04:00 +6°C° 0 mm 1 m/s 643 mmHg 74%
    05:00 +6°C° 0 mm 1 m/s 643 mmHg 75%
    06:00 +6°C° 0 mm 1 m/s 643 mmHg 75%
    07:00 +7°C° 0 mm 1 m/s 643 mmHg 72%
    08:00 +8°C° 0 mm 2 m/s 644 mmHg 68%
    09:00 +10°C° 0 mm 2 m/s 645 mmHg 65%
    10:00 +12°C° 0 mm 2 m/s 645 mmHg 62%
    11:00 +13°C° 0 mm 2 m/s 645 mmHg 59%
    12:00 +14°C° 0 mm 2 m/s 645 mmHg 56%
    13:00 +13°C° 0 mm 2 m/s 644 mmHg 59%
    14:00 +13°C° 0 mm 2 m/s 644 mmHg 62%
    15:00 +12°C° 0 mm 2 m/s 643 mmHg 65%
    16:00 +10°C° 0 mm 2 m/s 643 mmHg 72%
    17:00 +8°C° 0 mm 2 m/s 642 mmHg 79%
    18:00 +6°C° 0 mm 2 m/s 642 mmHg 86%
    19:00 +6°C° 0 mm 2 m/s 642 mmHg 84%
    20:00 +6°C° 0 mm 2 m/s 641 mmHg 82%
    21:00 +5°C° 0 mm 2 m/s 641 mmHg 80%
    22:00 +5°C° 0 mm 2 m/s 641 mmHg 79%
    23:00 +5°C° 0 mm 2 m/s 641 mmHg 79%

    Après-demain, 15 Novembre, Jeudi

    Heure Température Précipitation Vent Pression Humidité
    00:00 +5°C° 0 mm 2 m/s 641 mmHg 78%
    01:00 +5°C° 0 mm 2 m/s 640 mmHg 80%
    02:00 +5°C° 0 mm 2 m/s 640 mmHg 81%
    03:00 +5°C° 0 mm 2 m/s 640 mmHg 83%
    04:00 +5°C° 0.1 mm 2 m/s 640 mmHg 83%
    05:00 +5°C° 0.1 mm 2 m/s 640 mmHg 84%
    06:00 +5°C° 0.1 mm 2 m/s 640 mmHg 84%
    07:00 +6°C° 0.1 mm 2 m/s 641 mmHg 81%
    08:00 +8°C° 0.1 mm 2 m/s 641 mmHg 78%
    09:00 +9°C° 0.1 mm 2 m/s 642 mmHg 74%
    10:00 +10°C° 0 mm 2 m/s 642 mmHg 71%
    11:00 +11°C° 0 mm 3 m/s 642 mmHg 68%
    12:00 +12°C° 0 mm 3 m/s 643 mmHg 65%
    13:00 +12°C° 0.1 mm 3 m/s 642 mmHg 66%
    14:00 +12°C° 0.1 mm 2 m/s 642 mmHg 68%
    15:00 +12°C° 0.1 mm 2 m/s 642 mmHg 70%
    16:00 +9°C° 0 mm 2 m/s 641 mmHg 76%
    17:00 +9°C° 0 mm 1 m/s 641 mmHg 82%
    18:00 +7°C° 0 mm 1 m/s 641 mmHg 89%
    19:00 +7°C° 0 mm 1 m/s 641 mmHg 88%
    20:00 +7°C° 0 mm 1 m/s 641 mmHg 86%
    21:00 +6°C° 0 mm 1 m/s 641 mmHg 85%
    22:00 +6°C° 0 mm 1 m/s 641 mmHg 84%
    23:00 +6°C° 0 mm 1 m/s 641 mmHg 84%

    16 Novembre, Vendredi

    Heure Température Précipitation Vent Pression Humidité
    00:00 +6°C° 0 mm 1 m/s 641 mmHg 83%
    01:00 +6°C° 0 mm 1 m/s 641 mmHg 83%
    02:00 +6°C° 0 mm 1 m/s 641 mmHg 83%
    03:00 +5°C° 0 mm 1 m/s 641 mmHg 83%
    04:00 +5°C° 0 mm 1 m/s 641 mmHg 83%
    05:00 +5°C° 0 mm 1 m/s 641 mmHg 83%
    06:00 +5°C° 0 mm 1 m/s 641 mmHg 83%
    07:00 +7°C° 0 mm 1 m/s 642 mmHg 79%
    08:00 +8°C° 0 mm 1 m/s 642 mmHg 75%
    09:00 +9°C° 0 mm 2 m/s 643 mmHg 71%
    10:00 +10°C° 0 mm 2 m/s 643 mmHg 67%
    11:00 +12°C° 0 mm 2 m/s 644 mmHg 64%
    12:00 +13°C° 0 mm 2 m/s 644 mmHg 60%
    13:00 +12°C° 0 mm 2 m/s 643 mmHg 63%
    14:00 +12°C° 0 mm 2 m/s 643 mmHg 65%
    15:00 +12°C° 0 mm 2 m/s 643 mmHg 67%
    16:00 +9°C° 0 mm 2 m/s 642 mmHg 75%
    17:00 +8°C° 0 mm 1 m/s 642 mmHg 82%
    18:00 +6°C° 0 mm 1 m/s 641 mmHg 89%
    19:00 +6°C° 0 mm 1 m/s 641 mmHg 89%
    20:00 +6°C° 0 mm 1 m/s 641 mmHg 89%
    21:00 +5°C° 0 mm 1 m/s 641 mmHg 89%
    22:00 +5°C° 0 mm 1 m/s 641 mmHg 86%
    23:00 +5°C° 0 mm 1 m/s 641 mmHg 84%

    17 Novembre, Samedi

    Heure Température Précipitation Vent Pression Humidité
    00:00 +5°C° 0 mm 1 m/s 641 mmHg 81%
    01:00 +4°C° 0 mm 1 m/s 641 mmHg 80%
    02:00 +4°C° 0 mm 1 m/s 640 mmHg 79%
    03:00 +4°C° 0 mm 1 m/s 640 mmHg 78%
    04:00 +4°C° 0 mm 1 m/s 640 mmHg 78%
    05:00 +4°C° 0 mm 1 m/s 640 mmHg 78%
    06:00 +3°C° 0 mm 1 m/s 640 mmHg 78%
    07:00 +5°C° 0 mm 1 m/s 640 mmHg 73%
    08:00 +5°C° 0 mm 2 m/s 641 mmHg 67%
    09:00 +7°C° 0 mm 2 m/s 642 mmHg 62%
    10:00 +8°C° 0 mm 2 m/s 642 mmHg 59%
    11:00 +9°C° 0 mm 2 m/s 642 mmHg 55%
    12:00 +10°C° 0 mm 3 m/s 642 mmHg 52%
    13:00 +9°C° 0 mm 3 m/s 642 mmHg 55%
    14:00 +9°C° 0 mm 2 m/s 641 mmHg 58%
    15:00 +8°C° 0 mm 2 m/s 641 mmHg 61%
    16:00 +6°C° 0 mm 2 m/s 640 mmHg 69%
    17:00 +5°C° 0 mm 2 m/s 640 mmHg 76%
    18:00 +3°C° 0 mm 2 m/s 639 mmHg 83%
    19:00 +3°C° 0 mm 2 m/s 639 mmHg 84%
    20:00 +3°C° 0 mm 2 m/s 639 mmHg 84%
    21:00 +3°C° 0 mm 2 m/s 639 mmHg 85%
    22:00 +2°C° 0 mm 2 m/s 639 mmHg 85%
    23:00 +2°C° 0 mm 2 m/s 639 mmHg 85%

    18 Novembre, Dimanche

    Heure Température Précipitation Vent Pression Humidité
    00:00 +2°C° 0 mm 2 m/s 638 mmHg 85%
    01:00 +1°C° 0 mm 2 m/s 638 mmHg 84%
    02:00 +2°C° 0 mm 1 m/s 638 mmHg 84%
    03:00 +1°C° 0 mm 1 m/s 637 mmHg 83%
    04:00 +1°C° 0 mm 1 m/s 637 mmHg 81%
    05:00 +1°C° 0 mm 1 m/s 637 mmHg 79%
    06:00 +1°C° 0 mm 1 m/s 637 mmHg 77%
    07:00 +1°C° 0 mm 2 m/s 637 mmHg 71%
    08:00 +3°C° 0 mm 2 m/s 638 mmHg 64%
    09:00 +4°C° 0 mm 2 m/s 638 mmHg 57%
    10:00 +5°C° 0 mm 2 m/s 638 mmHg 55%
    11:00 +5°C° 0 mm 3 m/s 638 mmHg 53%
    12:00 +7°C° 0 mm 3 m/s 638 mmHg 50%
    13:00 +5°C° 0 mm 3 m/s 638 mmHg 53%
    14:00 +5°C° 0 mm 3 m/s 638 mmHg 56%
    15:00 +4°C° 0 mm 3 m/s 637 mmHg 59%
    16:00 +4°C° 0 mm 2 m/s 637 mmHg 67%
    17:00 +2°C° 0 mm 2 m/s 636 mmHg 75%
    18:00 +1°C° 0 mm 2 m/s 636 mmHg 83%
    19:00 +1°C° 0 mm 2 m/s 635 mmHg 84%
    20:00 +1°C° 0 mm 1 m/s 635 mmHg 85%
    21:00 +1°C° 0 mm 1 m/s 635 mmHg 86%
    22:00 +1°C° 0 mm 1 m/s 635 mmHg 85%
    23:00 0°C° 0 mm 1 m/s 635 mmHg 84%
    Voir plus